This is the latest recevied weather packets stored in our database for station/object KC4JIR. If no packets are shown the sender has not sent any weather packets the latest 10 day(s).
| Time | Temp. | Humidity | Pressure | Rain* | Wind** | Luminosity | Snow |
|---|---|---|---|---|---|---|---|
| 1788224012 | 27.22° C | 85% | 1015 hPa | 0 mm | - | 0 W/m² | - |
| 1788223707 | 27.22° C | 84% | 1015 hPa | 0 mm | - | 0 W/m² | - |
| 1788223400 | 27.22° C | 85% | 1015.1 hPa | 0 mm | - | 0 W/m² | - |
| 1788223095 | 27.22° C | 85% | 1014.9 hPa | 0 mm | - | 0 W/m² | - |
| 1788222790 | 27.78° C | 85% | 1014.9 hPa | 0 mm | - | 0 W/m² | - |
| 1788222489 | 27.78° C | 85% | 1015 hPa | 0 mm | - | 0 W/m² | - |
| 1788222183 | 27.78° C | 84% | 1014.8 hPa | 0 mm | - | 0 W/m² | - |
| 1788221873 | 27.78° C | 84% | 1015 hPa | 0 mm | - | 0 W/m² | - |
| 1788221569 | 27.78° C | 84% | 1015 hPa | 0 mm | - | 0 W/m² | - |
| 1788221263 | 28.33° C | 83% | 1014.8 hPa | 0 mm | - | 0 W/m² | - |
| 1788220959 | 28.33° C | 81% | 1014.9 hPa | 0 mm | - | 0 W/m² | - |
| 1788220657 | 28.33° C | 82% | 1014.8 hPa | 0 mm | - | 1 W/m² | - |
| 1788220353 | 28.33° C | 82% | 1014.6 hPa | 0 mm | - | 3 W/m² | - |
| 1788220048 | 28.89° C | 82% | 1014.8 hPa | 0 mm | - | 5 W/m² | - |
| 1788219747 | 28.89° C | 81% | 1014.7 hPa | 0 mm | - | 7 W/m² | - |
| 1788219437 | 28.89° C | 82% | 1014.7 hPa | 0 mm | - | 10 W/m² | - |
| 1788219132 | 29.44° C | 79% | 1014.7 hPa | 0 mm | - | 12 W/m² | - |
| 1788218827 | 29.44° C | 80% | 1014.6 hPa | 0 mm | - | 14 W/m² | - |
| 1788218523 | 29.44° C | 79% | 1014.6 hPa | 0 mm | - | 17 W/m² | - |
| 1788218219 | 30° C | 79% | 1014.7 hPa | 0 mm | - | 19 W/m² | - |
| 1788217914 | 30° C | 82% | 1014.6 hPa | 0 mm | - | 21 W/m² | - |
| 1788217609 | 30.56° C | 80% | 1015.1 hPa | 0 mm | - | 23 W/m² | - |
| 1788217305 | 30.56° C | 76% | 1014.6 hPa | 0 mm | - | 24 W/m² | - |
| 1788217004 | 31.11° C | 73% | 1015 hPa | 0 mm | - | 26 W/m² | - |
| 1788216699 | 31.67° C | 73% | 1014.9 hPa | 0 mm | - | 28 W/m² | - |
* Rain latest hour (hover to see other rain measurements)
** Current wind speed in m/s (hover to see current wind gust speed)